Location: Melara
(45.0500°N, 11.1833°E)
Time: 21:56:29
(UTC+00:00)

SL-16 R/B - Pass Details

Date: 26 May 2022
Orbit: 985 x 1006 km, 99.6° (Epoch: 04 July)

Event Time Altitude Azimuth Distance (km) Brightness Sun altitude
Exits shadow 01:14:41 20° 170° (S) 2,123 3.8 -18.2°
Maximum altitude 01:19:11 78° 255° (WSW) 1,023 2.5 -17.8°
Drops below altitude 10° 01:25:28 10° 342° (NNW) 2,783 5.4 -17.2°
Sets 01:27:58 0° 344° (NNW) 3,739 6.2 -17.0°
